time, Switch, Flow(0), Analog(2)
yyyy/mm/dd HH:MM:SS.fff, True=FILTERED|False=TOTAL, L/min, V
2023/06/23 07:00:02.108, True, 4.387, 0.135424
2023/06/23 07:00:02.612, True, 4.304, 0.134356
2023/06/23 07:00:03.108, True, 4.043, 0.133440
2023/06/23 07:00:03.612, True, 3.649, 0.133974
2023/06/23 07:00:04.116, True, 2.320, 0.133669
2023/06/23 07:00:04.612, True, 2.022, 0.132296
2023/06/23 07:00:05.116, True, 1.659, 0.133364
2023/06/23 07:00:05.620, True, 1.326, 0.134813
2023/06/23 07:00:06.116, True, 1.684, 0.134661
2023/06/23 07:00:06.620, True, 1.658, 0.132830
2023/06/23 07:00:07.124, True, 1.659, 0.133669
2023/06/23 07:00:07.628, True, 1.658, 0.133440
2023/06/23 07:00:08.124, True, 1.687, 0.133440
2023/06/23 07:00:08.628, True, 1.657, 0.134890
2023/06/23 07:00:09.132, True, 1.326, 0.133516
2023/06/23 07:00:09.628, True, 1.685, 0.134737
2023/06/23 07:00:10.132, True, 1.658, 0.133211
2023/06/23 07:00:10.636, True, 1.658, 0.132219
2023/06/23 07:00:11.132, True, 1.685, 0.134203
2023/06/23 07:00:11.636, True, 1.658, 0.134737
2023/06/23 07:00:12.140, True, 1.658, 0.131685
2023/06/23 07:00:12.636, True, 1.688, 0.134508
2023/06/23 07:00:13.140, True, 1.655, 0.133135
2023/06/23 07:00:13.644, True, 1.658, 0.133669
2023/06/23 07:00:14.140, True, 1.685, 0.134279
2023/06/23 07:00:14.644, True, 1.658, 0.133440
2023/06/23 07:00:15.140, True, 1.350, 0.134356
2023/06/23 07:00:15.644, True, 1.655, 0.132296
2023/06/23 07:00:16.148, True, 1.658, 0.134356
2023/06/23 07:00:16.652, True, 1.326, 0.134813
2023/06/23 07:00:17.147, True, 1.686, 0.132448
2023/06/23 07:00:17.652, True, 1.657, 0.133288
2023/06/23 07:00:18.156, True, 1.658, 0.132677
2023/06/23 07:00:18.660, True, 1.658, 0.134737
2023/06/23 07:00:19.156, True, 1.347, 0.132372
2023/06/23 07:00:19.660, True, 1.658, 0.133974
2023/06/23 07:00:20.164, True, 1.989, 0.132219
2023/06/23 07:00:20.660, True, 1.348, 0.135271
2023/06/23 07:00:21.164, True, 1.990, 0.132448
2023/06/23 07:00:21.668, True, 1.659, 0.133593
2023/06/23 07:00:22.164, True, 1.684, 0.133211
2023/06/23 07:00:22.668, True, 1.658, 0.132753
2023/06/23 07:00:23.172, True, 1.326, 0.134203
2023/06/23 07:00:23.676, True, 1.658, 0.134279
2023/06/23 07:00:24.172, True, 1.685, 0.133974
2023/06/23 07:00:24.676, True, 1.657, 0.132601
2023/06/23 07:00:25.180, True, 1.326, 0.134966
2023/06/23 07:00:25.676, True, 1.685, 0.134585
2023/06/23 07:00:26.179, True, 1.992, 0.135576
2023/06/23 07:00:26.684, True, 1.656, 0.134813
2023/06/23 07:00:27.180, True, 1.685, 0.134127
2023/06/23 07:00:27.684, True, 1.658, 0.133135
2023/06/23 07:00:28.187, True, 1.658, 0.135729
2023/06/23 07:00:28.684, True, 1.685, 0.132372
2023/06/23 07:00:29.188, True, 1.658, 0.134051
2023/06/23 07:00:29.692, True, 1.658, 0.133822
2023/06/23 07:00:30.188, True, 1.685, 0.134813
2023/06/23 07:00:30.692, True, 1.658, 0.131533
2023/06/23 07:00:31.196, True, 1.659, 0.132448
2023/06/23 07:00:31.691, True, 1.683, 0.133059
2023/06/23 07:00:32.196, True, 1.659, 0.133745
2023/06/23 07:00:32.700, True, 1.657, 0.132601
2023/06/23 07:00:33.196, True, 1.685, 0.135195
2023/06/23 07:00:33.700, True, 1.659, 0.132601
2023/06/23 07:00:34.204, True, 1.327, 0.132830
2023/06/23 07:00:34.699, True, 1.684, 0.133822
2023/06/23 07:00:35.204, True, 1.659, 0.132906
2023/06/23 07:00:35.708, True, 1.657, 0.131075
2023/06/23 07:00:36.204, True, 1.348, 0.133059
2023/06/23 07:00:36.708, True, 1.658, 0.133364
2023/06/23 07:00:37.212, True, 1.658, 0.134279
2023/06/23 07:00:37.716, True, 1.658, 0.133516
2023/06/23 07:00:38.212, True, 1.685, 0.133898
2023/06/23 07:00:38.716, True, 1.658, 0.134508
2023/06/23 07:00:39.220, True, 1.658, 0.135424
2023/06/23 07:00:39.716, True, 1.685, 0.136263
2023/06/23 07:00:40.220, True, 1.658, 0.134813
2023/06/23 07:00:40.724, True, 1.658, 0.136873
2023/06/23 07:00:41.220, True, 1.348, 0.136645
2023/06/23 07:00:41.724, True, 1.658, 0.133593
2023/06/23 07:00:42.228, True, 1.658, 0.134508
2023/06/23 07:00:42.724, True, 1.685, 0.134356
2023/06/23 07:00:43.227, True, 1.657, 0.137179
2023/06/23 07:00:43.724, True, 1.685, 0.137484
2023/06/23 07:00:44.228, True, 1.660, 0.136339
2023/06/23 07:00:44.731, True, 1.656, 0.138857
2023/06/23 07:00:45.236, True, 1.660, 0.141375
2023/06/23 07:00:45.731, True, 1.684, 0.137484
2023/06/23 07:00:46.236, True, 1.659, 0.139467
2023/06/23 07:00:46.739, True, 1.657, 0.139010
2023/06/23 07:00:47.235, True, 1.685, 0.139162
2023/06/23 07:00:47.740, True, 1.658, 0.138247
2023/06/23 07:00:48.244, True, 1.329, 0.141146
2023/06/23 07:00:48.739, True, 1.682, 0.139925
2023/06/23 07:00:49.243, True, 1.326, 0.140154
2023/06/23 07:00:49.748, True, 1.659, 0.138857
2023/06/23 07:00:50.244, True, 1.687, 0.140688
2023/06/23 07:00:50.748, True, 1.655, 0.141680
2023/06/23 07:00:51.252, True, 1.661, 0.143816
2023/06/23 07:00:51.755, True, 1.655, 0.144198
2023/06/23 07:00:52.252, True, 1.685, 0.145571
2023/06/23 07:00:52.756, True, 1.662, 0.141833
2023/06/23 07:00:53.259, True, 1.655, 0.143816
2023/06/23 07:00:53.756, True, 1.684, 0.144045
2023/06/23 07:00:54.260, True, 1.660, 0.142061
2023/06/23 07:00:54.764, True, 1.659, 0.144884
2023/06/23 07:00:55.260, True, 1.683, 0.142901
2023/06/23 07:00:55.764, True, 1.657, 0.143511
2023/06/23 07:00:56.268, True, 1.659, 0.141985
2023/06/23 07:00:56.764, True, 1.683, 0.143130
2023/06/23 07:00:57.268, True, 1.659, 0.144274
2023/06/23 07:00:57.772, True, 1.657, 0.144045
2023/06/23 07:00:58.267, True, 1.348, 0.143359
2023/06/23 07:00:58.772, True, 1.659, 0.144884
2023/06/23 07:00:59.276, True, 1.657, 0.141375
2023/06/23 07:00:59.772, True, 1.685, 0.145266
2023/06/23 07:01:00.276, True, 1.658, 0.143282
2023/06/23 07:01:00.780, True, 1.658, 0.141833
2023/06/23 07:01:01.276, True, 1.348, 0.146334
2023/06/23 07:01:01.780, True, 1.658, 0.143282
2023/06/23 07:01:02.284, True, 1.658, 0.142061
2023/06/23 07:01:02.780, True, 2.022, 0.143359
2023/06/23 07:01:03.284, True, 1.658, 0.143969
2023/06/23 07:01:03.788, True, 1.658, 0.144808
2023/06/23 07:01:04.284, True, 1.684, 0.144961
2023/06/23 07:01:04.788, True, 1.660, 0.144350
2023/06/23 07:01:05.284, True, 1.349, 0.146105
2023/06/23 07:01:05.788, True, 1.655, 0.145190
2023/06/23 07:01:06.292, True, 1.658, 0.144503
2023/06/23 07:01:06.796, True, 1.658, 0.144503
2023/06/23 07:01:07.292, True, 1.685, 0.145266
2023/06/23 07:01:07.796, True, 1.660, 0.144045
2023/06/23 07:01:08.299, True, 1.657, 0.149157
2023/06/23 07:01:08.796, True, 1.683, 0.146105
2023/06/23 07:01:09.300, True, 1.658, 0.145876
2023/06/23 07:01:09.804, True, 1.658, 0.145113
2023/06/23 07:01:10.299, True, 1.685, 0.143969
2023/06/23 07:01:10.804, True, 1.660, 0.144732
2023/06/23 07:01:11.308, True, 1.658, 0.144274
2023/06/23 07:01:11.803, True, 1.682, 0.144808
2023/06/23 07:01:12.308, True, 1.658, 0.144808
2023/06/23 07:01:12.812, True, 1.661, 0.144808
2023/06/23 07:01:13.308, True, 1.346, 0.144579
2023/06/23 07:01:13.812, True, 1.658, 0.145113
2023/06/23 07:01:14.316, True, 1.658, 0.145724
2023/06/23 07:01:14.820, True, 1.658, 0.145571
2023/06/23 07:01:15.316, True, 1.684, 0.145876
2023/06/23 07:01:15.820, True, 1.327, 0.145953
2023/06/23 07:01:16.324, True, 1.658, 0.146181
2023/06/23 07:01:16.820, True, 1.685, 0.146944
2023/06/23 07:01:17.324, True, 1.658, 0.145953
2023/06/23 07:01:17.820, True, 1.684, 0.146258
2023/06/23 07:01:18.324, True, 1.658, 0.145876
2023/06/23 07:01:18.828, True, 1.658, 0.144121
2023/06/23 07:01:19.324, True, 1.685, 0.144732
2023/06/23 07:01:19.828, True, 1.659, 0.144427
2023/06/23 07:01:20.331, True, 1.325, 0.144732
2023/06/23 07:01:20.828, True, 1.685, 0.144198
2023/06/23 07:01:21.332, True, 1.661, 0.146334
2023/06/23 07:01:21.836, True, 1.655, 0.143893
2023/06/23 07:01:22.332, True, 1.686, 0.145037
2023/06/23 07:01:22.835, True, 1.657, 0.145266
2023/06/23 07:01:23.340, True, 1.658, 0.145800
2023/06/23 07:01:23.844, True, 1.658, 0.147250
2023/06/23 07:01:24.340, True, 1.685, 0.143664
2023/06/23 07:01:24.843, True, 1.658, 0.144121
2023/06/23 07:01:25.348, True, 1.658, 0.144121
2023/06/23 07:01:25.844, True, 1.684, 0.143893
2023/06/23 07:01:26.348, True, 1.658, 0.144579
2023/06/23 07:01:26.852, True, 1.658, 0.143740
2023/06/23 07:01:27.348, True, 1.685, 0.145190
2023/06/23 07:01:27.852, True, 1.659, 0.145724
2023/06/23 07:01:28.356, True, 1.658, 0.145876
2023/06/23 07:01:28.852, True, 1.685, 0.145647
2023/06/23 07:01:29.356, True, 1.659, 0.146029
2023/06/23 07:01:29.860, True, 1.657, 0.144503
2023/06/23 07:01:30.356, True, 1.685, 0.145647
2023/06/23 07:01:30.860, True, 1.659, 0.143969
2023/06/23 07:01:31.364, True, 1.657, 0.145647
2023/06/23 07:01:31.859, True, 1.685, 0.144884
2023/06/23 07:01:32.364, True, 1.328, 0.145571
2023/06/23 07:01:32.868, True, 1.657, 0.144045
2023/06/23 07:01:33.372, True, 1.657, 0.144732
2023/06/23 07:01:33.868, True, 1.350, 0.145953
2023/06/23 07:01:34.371, True, 1.655, 0.144961
2023/06/23 07:01:34.876, True, 1.326, 0.146792
2023/06/23 07:01:35.372, True, 1.685, 0.145418
2023/06/23 07:01:35.876, True, 1.659, 0.145876
2023/06/23 07:01:36.380, True, 1.659, 0.144656
2023/06/23 07:01:36.876, True, 1.682, 0.144427
2023/06/23 07:01:37.379, True, 1.328, 0.145037
2023/06/23 07:01:37.884, True, 1.658, 0.144732
2023/06/23 07:01:38.380, True, 1.683, 0.145876
2023/06/23 07:01:38.884, True, 1.658, 0.144656
2023/06/23 07:01:39.387, True, 1.658, 0.144121
2023/06/23 07:01:39.884, True, 1.685, 0.143053
2023/06/23 07:01:40.388, True, 1.657, 0.143511
2023/06/23 07:01:40.892, True, 1.327, 0.143130
2023/06/23 07:01:41.388, True, 1.688, 0.145571
2023/06/23 07:01:41.892, True, 1.655, 0.143740
2023/06/23 07:01:42.396, True, 1.658, 0.145953
2023/06/23 07:01:42.892, True, 1.685, 0.143664
2023/06/23 07:01:43.396, True, 1.658, 0.145647
2023/06/23 07:01:43.900, True, 1.326, 0.144503
2023/06/23 07:01:44.396, True, 1.685, 0.145953
2023/06/23 07:01:44.900, True, 1.658, 0.145647
2023/06/23 07:01:45.404, True, 1.659, 0.144884
2023/06/23 07:01:45.900, True, 1.683, 0.144274
2023/06/23 07:01:46.404, True, 1.327, 0.146181
2023/06/23 07:01:46.908, True, 1.657, 0.145495
2023/06/23 07:01:47.404, True, 1.685, 0.145800
2023/06/23 07:01:47.908, True, 1.658, 0.144579
2023/06/23 07:01:48.412, True, 1.658, 0.144579
2023/06/23 07:01:48.908, True, 1.688, 0.143969
2023/06/23 07:01:49.412, True, 1.324, 0.144503
2023/06/23 07:01:49.916, True, 1.657, 0.142824
2023/06/23 07:01:50.412, True, 1.685, 0.142443
2023/06/23 07:01:50.915, True, 1.658, 0.145342
2023/06/23 07:01:51.420, True, 1.658, 0.145647
2023/06/23 07:01:51.916, True, 1.684, 0.143359
2023/06/23 07:01:52.420, True, 1.658, 0.143511
2023/06/23 07:01:52.924, True, 1.658, 0.141299
2023/06/23 07:01:53.420, True, 1.685, 0.143587
2023/06/23 07:01:53.924, True, 1.657, 0.145113
2023/06/23 07:01:54.428, True, 1.658, 0.143435
2023/06/23 07:01:54.932, True, 1.658, 0.142214
2023/06/23 07:01:55.428, True, 1.685, 0.143435
2023/06/23 07:01:55.932, True, 1.661, 0.145190
2023/06/23 07:01:56.436, True, 1.657, 0.142672
2023/06/23 07:01:56.939, True, 1.325, 0.144503
2023/06/23 07:01:57.436, True, 1.685, 0.140764
2023/06/23 07:01:57.940, True, 1.659, 0.141909
2023/06/23 07:01:58.436, True, 1.685, 0.144656
2023/06/23 07:01:58.940, True, 1.658, 0.143282
2023/06/23 07:01:59.444, True, 1.658, 0.143969
2023/06/23 07:01:59.939, True, 1.685, 0.143664
2023/06/23 07:02:00.444, True, 1.658, 0.142824
2023/06/23 07:02:00.948, True, 1.658, 0.141604
2023/06/23 07:02:01.444, True, 1.685, 0.145571
2023/06/23 07:02:01.948, True, 1.658, 0.144656
2023/06/23 07:02:02.452, True, 1.658, 0.144884
2023/06/23 07:02:02.948, True, 1.350, 0.146563
2023/06/23 07:02:03.452, True, 1.655, 0.141909
2023/06/23 07:02:03.956, True, 1.658, 0.142367
2023/06/23 07:02:04.460, True, 1.658, 0.140383
2023/06/23 07:02:04.956, True, 1.348, 0.143816
2023/06/23 07:02:05.459, True, 1.658, 0.144045
2023/06/23 07:02:05.964, True, 1.658, 0.144274
2023/06/23 07:02:06.460, True, 1.685, 0.143511
2023/06/23 07:02:06.963, True, 1.326, 0.143587
2023/06/23 07:02:07.460, True, 1.684, 0.144579
2023/06/23 07:02:07.964, True, 1.658, 0.142596
2023/06/23 07:02:08.467, True, 1.658, 0.142367
2023/06/23 07:02:08.963, True, 1.685, 0.143435
2023/06/23 07:02:09.468, True, 1.662, 0.142748
2023/06/23 07:02:09.971, True, 1.654, 0.142596
2023/06/23 07:02:10.476, True, 1.658, 0.140764
2023/06/23 07:02:10.971, True, 1.685, 0.142901
2023/06/23 07:02:11.475, True, 1.658, 0.140841
2023/06/23 07:02:11.979, True, 1.658, 0.143053
2023/06/23 07:02:12.476, True, 1.685, 0.140536
2023/06/23 07:02:12.980, True, 1.658, 0.142672
2023/06/23 07:02:13.483, True, 1.658, 0.142748
2023/06/23 07:02:13.979, True, 1.685, 0.141375
2023/06/23 07:02:14.483, True, 1.658, 0.143130
2023/06/23 07:02:14.988, True, 1.661, 0.143130
2023/06/23 07:02:15.483, True, 1.681, 0.143130
2023/06/23 07:02:15.987, True, 1.658, 0.142977
2023/06/23 07:02:16.484, True, 1.685, 0.143587
2023/06/23 07:02:16.988, True, 1.660, 0.141909
2023/06/23 07:02:17.492, True, 1.659, 0.144274
2023/06/23 07:02:17.996, True, 1.656, 0.141222
2023/06/23 07:02:18.492, True, 1.686, 0.142748
2023/06/23 07:02:18.996, True, 1.656, 0.143664
2023/06/23 07:02:19.492, True, 1.348, 0.141146
2023/06/23 07:02:19.996, True, 1.660, 0.143969
2023/06/23 07:02:20.500, True, 1.659, 0.143816
2023/06/23 07:02:20.995, True, 1.682, 0.143893
2023/06/23 07:02:21.500, True, 1.327, 0.143130
2023/06/23 07:02:22.004, True, 1.658, 0.141451
2023/06/23 07:02:22.500, True, 1.687, 0.143511
2023/06/23 07:02:23.003, True, 1.324, 0.141222
2023/06/23 07:02:23.500, True, 1.349, 0.142901
2023/06/23 07:02:24.004, True, 1.658, 0.143359
2023/06/23 07:02:24.508, True, 1.657, 0.141527
2023/06/23 07:02:25.004, True, 1.684, 0.141222
2023/06/23 07:02:25.508, True, 1.328, 0.141909
2023/06/23 07:02:26.012, True, 1.988, 0.142138
2023/06/23 07:02:26.507, True, 1.349, 0.142672
2023/06/23 07:02:27.012, True, 1.656, 0.139620
2023/06/23 07:02:27.516, True, 1.658, 0.141909
2023/06/23 07:02:28.012, True, 1.688, 0.139010
2023/06/23 07:02:28.516, True, 1.655, 0.141146
2023/06/23 07:02:29.020, True, 1.326, 0.141527
2023/06/23 07:02:29.516, True, 1.687, 0.141070
2023/06/23 07:02:30.020, True, 1.656, 0.142672
2023/06/23 07:02:30.524, True, 1.658, 0.141299
2023/06/23 07:02:31.020, True, 1.685, 0.143206
2023/06/23 07:02:31.524, True, 1.658, 0.143587
2023/06/23 07:02:32.028, True, 1.326, 0.141146
2023/06/23 07:02:32.524, True, 1.685, 0.141909
2023/06/23 07:02:33.027, True, 1.658, 0.139467
2023/06/23 07:02:33.532, True, 1.326, 0.139544
2023/06/23 07:02:34.036, True, 1.658, 0.141299
2023/06/23 07:02:34.532, True, 1.685, 0.142214
2023/06/23 07:02:35.036, True, 1.658, 0.141527
2023/06/23 07:02:35.532, True, 1.348, 0.142061
2023/06/23 07:02:36.036, True, 1.658, 0.140764
2023/06/23 07:02:36.539, True, 1.658, 0.141451
2023/06/23 07:02:37.036, True, 1.685, 0.141909
2023/06/23 07:02:37.540, True, 1.658, 0.143206
2023/06/23 07:02:38.044, True, 1.326, 0.143053
2023/06/23 07:02:38.540, True, 1.685, 0.141680
2023/06/23 07:02:39.043, True, 1.658, 0.144579
2023/06/23 07:02:39.548, True, 1.658, 0.142061
2023/06/23 07:02:40.044, True, 1.685, 0.140917
2023/06/23 07:02:40.548, True, 1.658, 0.140764
2023/06/23 07:02:41.051, True, 1.658, 0.141451
2023/06/23 07:02:41.547, True, 1.685, 0.142977
2023/06/23 07:02:42.051, True, 1.660, 0.141680
2023/06/23 07:02:42.556, True, 1.656, 0.140764
2023/06/23 07:02:43.052, True, 1.348, 0.140688
2023/06/23 07:02:43.556, True, 1.658, 0.140459
2023/06/23 07:02:44.060, True, 1.658, 0.141604
2023/06/23 07:02:44.556, True, 1.685, 0.140536
2023/06/23 07:02:45.060, True, 1.658, 0.140841
2023/06/23 07:02:45.564, True, 1.658, 0.141299
2023/06/23 07:02:46.060, True, 1.685, 0.145266
2023/06/23 07:02:46.564, True, 1.658, 0.141222
2023/06/23 07:02:47.068, True, 1.659, 0.141070
2023/06/23 07:02:47.564, True, 1.683, 0.142748
2023/06/23 07:02:48.067, True, 1.658, 0.141146
2023/06/23 07:02:48.572, True, 1.658, 0.141375
2023/06/23 07:02:49.068, True, 1.348, 0.140002
2023/06/23 07:02:49.571, True, 1.658, 0.140841
2023/06/23 07:02:50.076, True, 1.658, 0.141375
2023/06/23 07:02:50.572, True, 1.348, 0.142061
2023/06/23 07:02:51.076, True, 1.658, 0.141375
2023/06/23 07:02:51.580, True, 1.658, 0.139696
2023/06/23 07:02:52.076, True, 1.686, 0.142748
2023/06/23 07:02:52.579, True, 1.657, 0.141985
2023/06/23 07:02:53.084, True, 1.658, 0.138933
2023/06/23 07:02:53.587, True, 1.659, 0.141222
2023/06/23 07:02:54.083, True, 1.685, 0.141985
2023/06/23 07:02:54.588, True, 1.326, 0.141604
2023/06/23 07:02:55.084, True, 1.685, 0.140917
2023/06/23 07:02:55.588, True, 1.659, 0.139391
2023/06/23 07:02:56.092, True, 1.658, 0.142977
2023/06/23 07:02:56.588, True, 1.684, 0.140154
2023/06/23 07:02:57.092, True, 1.658, 0.140307
2023/06/23 07:02:57.596, True, 1.658, 0.140612
2023/06/23 07:02:58.092, True, 1.687, 0.141604
2023/06/23 07:02:58.596, True, 1.655, 0.141985
2023/06/23 07:02:59.100, True, 1.658, 0.141833
2023/06/23 07:02:59.604, True, 1.658, 0.138476
2023/06/23 07:03:00.100, True, 1.685, 0.140764
2023/06/23 07:03:00.603, True, 1.326, 0.142519
2023/06/23 07:03:01.108, True, 1.658, 0.140764
2023/06/23 07:03:01.604, True, 1.685, 0.141146
2023/06/23 07:03:02.107, True, 1.661, 0.142672
2023/06/23 07:03:02.612, True, 1.655, 0.137942
2023/06/23 07:03:03.115, True, 1.658, 0.139162
2023/06/23 07:03:03.612, True, 1.685, 0.140078
2023/06/23 07:03:04.116, True, 1.658, 0.140002
2023/06/23 07:03:04.612, True, 1.348, 0.140230
2023/06/23 07:03:05.116, True, 1.658, 0.138628
2023/06/23 07:03:05.620, True, 1.658, 0.141070
2023/06/23 07:03:06.124, True, 1.658, 0.141909
2023/06/23 07:03:06.619, True, 1.688, 0.142367
2023/06/23 07:03:07.124, True, 1.655, 0.141680
2023/06/23 07:03:07.628, True, 1.658, 0.140383
2023/06/23 07:03:08.124, True, 1.685, 0.140230
2023/06/23 07:03:08.628, True, 1.658, 0.139925
2023/06/23 07:03:09.124, True, 1.685, 0.139925
2023/06/23 07:03:09.628, True, 1.326, 0.142138
2023/06/23 07:03:10.132, True, 1.658, 0.138781
2023/06/23 07:03:10.628, True, 1.685, 0.141985
2023/06/23 07:03:11.132, True, 1.658, 0.139086
2023/06/23 07:03:11.636, True, 1.658, 0.139696
2023/06/23 07:03:12.132, True, 1.684, 0.139544
2023/06/23 07:03:12.636, True, 1.659, 0.139620
2023/06/23 07:03:13.140, True, 1.657, 0.140002
2023/06/23 07:03:13.644, True, 1.990, 0.140383
2023/06/23 07:03:14.139, True, 1.684, 0.141756
2023/06/23 07:03:14.644, True, 1.660, 0.141222
2023/06/23 07:03:15.148, True, 1.656, 0.138399
2023/06/23 07:03:15.643, True, 1.349, 0.140764
2023/06/23 07:03:16.148, True, 1.657, 0.139925
2023/06/23 07:03:16.652, True, 1.658, 0.139315
2023/06/23 07:03:17.148, True, 1.686, 0.138552
2023/06/23 07:03:17.652, True, 1.657, 0.140002
2023/06/23 07:03:18.156, True, 1.659, 0.141222
2023/06/23 07:03:18.652, True, 1.347, 0.140307
2023/06/23 07:03:19.156, True, 1.658, 0.140230
2023/06/23 07:03:19.652, True, 1.685, 0.141604
2023/06/23 07:03:20.155, True, 1.658, 0.139544
2023/06/23 07:03:20.660, True, 1.658, 0.138857
2023/06/23 07:03:21.156, True, 1.685, 0.139696
2023/06/23 07:03:21.660, True, 1.658, 0.140078
2023/06/23 07:03:22.164, True, 1.658, 0.138628
2023/06/23 07:03:22.660, True, 1.348, 0.140612
2023/06/23 07:03:23.164, True, 1.658, 0.140154
2023/06/23 07:03:23.668, True, 1.658, 0.138705
2023/06/23 07:03:24.164, True, 1.685, 0.140841
2023/06/23 07:03:24.668, True, 1.658, 0.138247
2023/06/23 07:03:25.171, True, 1.327, 0.141299
2023/06/23 07:03:25.668, True, 1.684, 0.140764
2023/06/23 07:03:26.172, True, 1.658, 0.140764
2023/06/23 07:03:26.676, True, 1.658, 0.139925
2023/06/23 07:03:27.171, True, 1.686, 0.140612
2023/06/23 07:03:27.676, True, 1.326, 0.139620
2023/06/23 07:03:28.180, True, 1.989, 0.138476
2023/06/23 07:03:28.675, True, 1.348, 0.141604
2023/06/23 07:03:29.179, True, 1.658, 0.139849
2023/06/23 07:03:29.684, True, 1.658, 0.138094
2023/06/23 07:03:30.188, True, 1.658, 0.139467
2023/06/23 07:03:30.683, True, 1.685, 0.139849
2023/06/23 07:03:31.188, True, 1.658, 0.139620
2023/06/23 07:03:31.692, True, 1.989, 0.139773
2023/06/23 07:03:32.187, True, 1.348, 0.139315
2023/06/23 07:03:32.692, True, 1.660, 0.138857
2023/06/23 07:03:33.196, True, 1.656, 0.139010
2023/06/23 07:03:33.699, True, 1.658, 0.139773
2023/06/23 07:03:34.196, True, 1.688, 0.138476
2023/06/23 07:03:34.699, True, 1.324, 0.139315
2023/06/23 07:03:35.204, True, 1.658, 0.139925
2023/06/23 07:03:35.700, True, 1.685, 0.139162
2023/06/23 07:03:36.204, True, 1.659, 0.140078
2023/06/23 07:03:36.708, True, 1.326, 0.140612
2023/06/23 07:03:37.204, True, 1.687, 0.138781
2023/06/23 07:03:37.708, True, 1.656, 0.140383
2023/06/23 07:03:38.211, True, 1.658, 0.140002
2023/06/23 07:03:38.708, True, 1.685, 0.138018
2023/06/23 07:03:39.212, True, 1.658, 0.140688
2023/06/23 07:03:39.715, True, 1.658, 0.139544
2023/06/23 07:03:40.212, True, 1.685, 0.139162
2023/06/23 07:03:40.716, True, 1.658, 0.138628
2023/06/23 07:03:41.219, True, 1.658, 0.139315
2023/06/23 07:03:41.716, True, 1.686, 0.140764
2023/06/23 07:03:42.220, True, 1.659, 0.138628
2023/06/23 07:03:42.724, True, 1.657, 0.139010
2023/06/23 07:03:43.219, True, 1.685, 0.139010
2023/06/23 07:03:43.723, True, 1.327, 0.137179
2023/06/23 07:03:44.219, True, 1.683, 0.139849
2023/06/23 07:03:44.723, True, 1.659, 0.138018
2023/06/23 07:03:45.227, True, 1.657, 0.139773
2023/06/23 07:03:45.732, True, 1.659, 0.138323
2023/06/23 07:03:46.228, True, 1.685, 0.142519
2023/06/23 07:03:46.731, True, 1.657, 0.141985
2023/06/23 07:03:47.235, True, 1.660, 0.138857
2023/06/23 07:03:47.731, True, 1.348, 0.138476
2023/06/23 07:03:48.236, True, 1.657, 0.137560
2023/06/23 07:03:48.739, True, 1.659, 0.139544
2023/06/23 07:03:49.236, True, 1.683, 0.138781
2023/06/23 07:03:49.740, True, 1.661, 0.140459
2023/06/23 07:03:50.244, True, 1.657, 0.139391
2023/06/23 07:03:50.739, True, 1.683, 0.136645
2023/06/23 07:03:51.243, True, 1.659, 0.140230
2023/06/23 07:03:51.748, True, 1.656, 0.138247
2023/06/23 07:03:52.252, True, 1.660, 0.140154
2023/06/23 07:03:52.748, True, 1.685, 0.138628
2023/06/23 07:03:53.252, True, 1.659, 0.138933
2023/06/23 07:03:53.756, True, 1.658, 0.138781
2023/06/23 07:03:54.252, True, 1.682, 0.138476
2023/06/23 07:03:54.755, True, 1.661, 0.138552
2023/06/23 07:03:55.260, True, 1.655, 0.138705
2023/06/23 07:03:55.764, True, 1.661, 0.140383
2023/06/23 07:03:56.260, True, 1.682, 0.139162
2023/06/23 07:03:56.764, True, 1.326, 0.138399
2023/06/23 07:03:57.268, True, 1.658, 0.138247
2023/06/23 07:03:57.764, True, 1.685, 0.139010
2023/06/23 07:03:58.267, True, 1.658, 0.138247
2023/06/23 07:03:58.772, True, 1.658, 0.140230
2023/06/23 07:03:59.268, True, 1.686, 0.137484
2023/06/23 07:03:59.771, True, 1.989, 0.137102
2023/06/23 07:04:00.275, True, 1.658, 0.140230
2023/06/23 07:04:00.780, True, 1.326, 0.139010
2023/06/23 07:04:01.276, True, 1.685, 0.140154
2023/06/23 07:04:01.780, True, 1.658, 0.138781
2023/06/23 07:04:02.276, True, 1.684, 0.140688
2023/06/23 07:04:02.780, True, 1.658, 0.138552
2023/06/23 07:04:03.284, True, 1.658, 0.138552
2023/06/23 07:04:03.788, True, 1.326, 0.139239
2023/06/23 07:04:04.284, True, 1.685, 0.138781
2023/06/23 07:04:04.788, True, 1.659, 0.135271
2023/06/23 07:04:05.292, True, 1.657, 0.136721
2023/06/23 07:04:05.787, True, 1.686, 0.138781
2023/06/23 07:04:06.292, True, 1.658, 0.138170
2023/06/23 07:04:06.788, True, 1.685, 0.137636
2023/06/23 07:04:07.292, True, 1.657, 0.139620
2023/06/23 07:04:07.796, True, 1.658, 0.138933
2023/06/23 07:04:08.292, True, 1.348, 0.140154
2023/06/23 07:04:08.796, True, 1.658, 0.138933
2023/06/23 07:04:09.300, True, 1.326, 0.137255
2023/06/23 07:04:09.796, True, 1.685, 0.138857
2023/06/23 07:04:10.300, True, 1.658, 0.138705
2023/06/23 07:04:10.796, True, 1.685, 0.138476
2023/06/23 07:04:11.299, True, 1.658, 0.137865